FENGYUN 1C DEB

Satellite information

Favourite Embed

Satellite Type and Status

DEBRISIN ORBIT

Key statistics

Satellite FENGYUN 1C DEB at a glance.

Uptime

9609

Days in orbit

Revolutions

≈ 14.4

Per day

Orbit

SSO

Sun Synchronous Orbit

Inclination

98.4

Latest

Satellite identification and parameters

Extended collection of information and parameters for FENGYUN 1C DEB.

Object identification

Identified? True

Debris? True

Object name: FENGYUN 1C DEB

International designator: 1999-025CLU

Object number (NORAD): 31917

Object ID (CCSDS): 31917

Country: PEOPLES REPUBLIC OF CHINA (PRC)

Current information (Y/N): Y

RCS size: SMALL

Orbital parameters

Period: 100.207 minutes

Inclination: 98.3545 deg

SMA: 7146.48 km

Apoapsis: 904.277 km

Periapsis: 632.413 km

RAAN: 234.9539 deg

Eccentricy: 0.01902083

Argument of periapsis: 255.2045 deg

Mean anomaly: 167.2562 deg

Mean motion: 14.37025587 rev/day

Mean motion (dot): 0.00001132 rev/day2

B* drag term: 0.0003240018 1/REarth

Two-line elements (TLE)

Creation date: Aug. 27, 2025, 12:18 p.m.

Reference frame: TEME

Reference center: EARTH

Epoch: Aug. 27, 2025, 5:12 a.m. UTC

TLE line 0: 0 FENGYUN 1C DEB

TLE line 1: 1 31917U 99025CLU 25239.21724736 .00001132 00000-0 32400-3 0 9998

TLE line 2: 2 31917 98.3545 234.9539 0190208 255.2045 167.2562 14.37025587948771

Live tracking on map

Real-time ground track for satellite FENGYUN 1C DEB.

In-orbit conjunctions

A list of the most updated potential collisions computed for object FENGYUN 1C DEB.

Target Orbit TCA Probability of collision Miss distance Type
CZ-6A DEB LEO 2025-03-24 23:48:59 0.0001939892 81.0 (m) DEBRIS
COSMOS 2251 DEB LEO 2024-09-06 15:07:04 0.0001094173 188.0 (m) DEBRIS

Associated space launch

Chinese polar orbiting meteorological satellite

FENGYUN 1C DEB was lifted into orbit during the mission ‘Long March 4B | Feng Yun 1C’, on board a Long March 4B space rocket.

The launch took place on May 10, 1999, 1:33 a.m. from Launch Complex 7.

For more information about the launch, click the button.

Launch to space Long March 4B | Feng Yun 1C
Long March 4B | Feng Yun 1C

Agency: N/A

Status: Launch Successful

Launch date: May 10, 1999, 1:33 a.m. UTC

Rocket: Long March 4B

Launch pad: Launch Complex 7

Location: Taiyuan Satellite Launch Center, People's Republic of China

...

Latest news about this satellite

There are no fresh news available about this satellite. Check back as we update our databases every day.


Newsletter sign-up

Weekly statistics, charts and insights to help you stay on top of the space industry.